Change the Weather History Date:

Monday, November 12, 2012

  Actual Average Record
Temperature  
Mean Temperature 52 °F 57 °F  
Max Temperature 67 °F 69 °F 84 °F (1969)
Min Temperature 37 °F 44 °F 19 °F (1950)
Degree Days  
Heating Degree Days 13 9  
Month to date heating degree days 105 91  
Since 1 July heating degree days 260 193  
Cooling Degree Days 0 0  
Month to date cooling degree days 9 12  
Year to date cooling degree days 2397 2221  
Moisture  
Dew Point 47 °F    
Average Humidity 69    
Maximum Humidity 100    
Minimum Humidity 38    
Precipitation  
Precipitation 0.25 in 0.14 in 1.27 in (1962)
Month to date precipitation 1.75 1.66  
Year to date precipitation 46.04 45.79  
Sea Level Pressure  
Sea Level Pressure 30.32 in    
Wind  
Wind Speed 8 mph (NNW)    
Max Wind Speed 26 mph    
Max Gust Speed 41 mph    
Visibility 9 miles    
Events Rain    
T = Trace of Precipitation, MM = Missing Value Source: NWS Daily Summary

Daily Weather History Graph

Daily Weather History Graph

Search for Another Location

Airport or City:

Trip Planner

Search our weather history database for the weather conditions in past years. The results will help you decide how hot, cold, wet, or windy it might be!

Date:

Astronomy

Nov. 12, 2012 Rise Set
Actual Time 6:31 AM CST 5:05 PM CST
Civil Twilight 6:05 AM CST 5:30 PM CST
Nautical Twilight 5:35 AM CST 6:00 PM CST
Astronomical Twilight 5:06 AM CST 6:29 PM CST
Moon 4:59 AM CST (11/12) 4:08 PM CST (11/12)
Length of Visible Light 11h 25m
Length of Day
10h 33m
Waning Crescent, 2% of the Moon is Illuminated
Nov 12
Waning Crescent
Nov 13
New
Nov 20
First Quarter
Nov 28
Full
Dec 6
Last Quarter

Hourly Weather History & Observations

Time (CST) Temp. Windchill Dew Point Humidity Pressure Visibility Wind Dir Wind Speed Gust Speed Precip Events Conditions
12:10 AM 62.6 °F - 60.8 °F 94% 30.07 in 1.8 mi NW 23.0 mph 41.4 mph 0.10 in Rain Heavy Rain
12:13 AM 60.8 °F - 57.2 °F 88% 30.08 in 2.0 mi NW 21.9 mph 41.4 mph 0.10 in Rain Heavy Rain
12:19 AM 57.2 °F - 55.4 °F 94% 30.09 in 3.0 mi NW 21.9 mph 41.4 mph 0.12 in Rain Rain
12:50 AM 57.2 °F - 55.4 °F 94% 30.13 in 4.0 mi NNW 18.4 mph 27.6 mph 0.19 in Rain Rain
12:53 AM 55.9 °F - 54.0 °F 93% 30.16 in 4.0 mi NNW 15.0 mph 27.6 mph 0.19 in Rain Rain
1:06 AM 53.6 °F - 53.6 °F 100% 30.15 in 5.0 mi NNW 13.8 mph 27.6 mph 0.02 in Rain Light Rain
1:15 AM 53.6 °F - 51.8 °F 94% 30.17 in 4.0 mi NNW 26.5 mph 40.3 mph 0.03 in Rain Rain
1:26 AM 51.8 °F - 50.0 °F 94% 30.17 in 5.0 mi NNW 13.8 mph 34.5 mph 0.04 in Rain Rain
1:53 AM 53.1 °F - 51.1 °F 93% 30.19 in 10.0 mi North 10.4 mph 18.4 mph 0.05 in Rain Light Rain
2:53 AM 53.1 °F - 51.1 °F 93% 30.20 in 10.0 mi NNW 3.5 mph - 0.01 in Rain Light Rain
3:53 AM 53.1 °F - 52.0 °F 96% 30.23 in 10.0 mi Calm Calm - 0.00 in   Overcast
4:53 AM 54.0 °F - 52.0 °F 93% 30.24 in 10.0 mi NNE 3.5 mph - N/A   Overcast
5:53 AM 54.0 °F - 53.1 °F 97% 30.27 in 10.0 mi Calm Calm - N/A   Overcast
6:22 AM 53.6 °F - 53.6 °F 100% 30.27 in 10.0 mi Calm Calm - 0.00 in   Overcast
6:53 AM 54.0 °F - 53.1 °F 97% 30.31 in 10.0 mi Calm Calm - 0.00 in   Overcast
7:53 AM 55.0 °F - 51.1 °F 86% 30.34 in 10.0 mi NNW 5.8 mph - N/A   Overcast
8:53 AM 55.9 °F - 52.0 °F 87% 30.37 in 10.0 mi NNW 4.6 mph - N/A   Overcast
9:05 AM 55.4 °F - 51.8 °F 88% 30.35 in 10.0 mi NNW 8.1 mph 16.1 mph N/A   Overcast
9:28 AM 55.4 °F - 51.8 °F 88% 30.36 in 10.0 mi NNW 10.4 mph 23.0 mph N/A   Mostly Cloudy
9:53 AM 54.0 °F - 48.9 °F 83% 30.40 in 10.0 mi NNW 13.8 mph 20.7 mph N/A   Overcast
10:08 AM 53.6 °F - 48.2 °F 82% 30.38 in 10.0 mi NNW 15.0 mph 25.3 mph N/A   Overcast
10:26 AM 53.6 °F - 46.4 °F 77% 30.39 in 10.0 mi NNW 10.4 mph 21.9 mph N/A   Overcast
10:53 AM 52.0 °F - 46.9 °F 83% 30.42 in 10.0 mi NNW 13.8 mph 21.9 mph N/A   Overcast
11:53 AM 52.0 °F - 45.0 °F 77% 30.42 in 10.0 mi NW 9.2 mph - N/A   Overcast
12:53 PM 52.0 °F - 44.1 °F 74% 30.41 in 10.0 mi North 13.8 mph 19.6 mph N/A   Overcast
1:30 PM 55.4 °F - 42.8 °F 63% 30.38 in 10.0 mi NNE 9.2 mph - N/A   Partly Cloudy
1:53 PM 55.9 °F - 41.0 °F 57% 30.40 in 10.0 mi North 12.7 mph 19.6 mph N/A   Partly Cloudy
2:53 PM 55.9 °F - 37.9 °F 51% 30.41 in 10.0 mi North 10.4 mph - N/A   Clear
3:53 PM 55.0 °F - 30.9 °F 40% 30.42 in 10.0 mi NNE 15.0 mph 20.7 mph N/A   Clear
4:53 PM 50.0 °F - 36.0 °F 59% 30.43 in 10.0 mi NNE 9.2 mph - N/A   Clear
5:53 PM 46.9 °F - 36.0 °F 66% 30.45 in 10.0 mi NNE 8.1 mph - N/A   Clear
7:53 PM 41.0 °F 36.4 °F 35.1 °F 79% 30.48 in 10.0 mi North 6.9 mph - N/A   Clear
8:53 PM 42.1 °F 37.7 °F 34.0 °F 73% 30.48 in 10.0 mi North 6.9 mph - N/A   Clear
9:53 PM 37.9 °F 34.4 °F 33.1 °F 83% 30.48 in 10.0 mi NNW 4.6 mph - N/A   Clear
10:53 PM 39.0 °F 34.0 °F 32.0 °F 76% 30.48 in 10.0 mi North 6.9 mph - N/A   Clear
11:53 PM 37.0 °F 32.4 °F 30.9 °F 79% 30.48 in 10.0 mi NNE 5.8 mph - N/A   Clear